Volver al catálogo

DELTA 1 DEB

ActivoSSO
NORAD 7033·DEBRIS·🇺🇸 United States

Lanzado Nov 6, 1973 desde Vandenberg Space Force Base

Loading…

Próximos Pases (próximas 24 horas)

TLE

ActualizadoSource: Space-Track

Época: Sep 14, 2026, 13:02 UTC

1 07033U 73086Z   26257.54334964 -.00000018  00000-0  17606-3 0  9990
2 07033 101.5754 280.0162 0026385 129.7549  25.1424 12.41930035388586

Sigue DELTA 1 DEB en tiempo real con AllMySat

Download on the App Store